Location: Harwich
(41.6860°N, 70.0760°W)
Time: 01:18:48
(UTC-05:00)

Cosmos 2228 - Visible Passes

Search period start: 17 December 2017 00:00
Search period end: 27 December 2017 00:00
Orbit: 590 x 618 km, 82.5° (Epoch: 16 December)

Date Brightness Start Highest point End Pass type
(mag) Time Alt. Az. Time Alt. Az. Time Alt. Az.
18 Dec 6.1 06:19:58 10° ESE 06:22:01 13° E 06:24:04 10° NE visible
19 Dec 5.8 06:31:14 10° SE 06:34:34 21° E 06:37:55 10° NE visible
19 Dec5.818:24:05SSE18:24:05SSE18:13:27Nvisible
20 Dec 3.5 18:26:44 10° N 18:32:07 51° S 18:35:22 10° S visible
21 Dec 4.6 17:03:25 10° NE 17:05:57 15° ENE 17:08:27 10° ESE visible
21 Dec 4.0 18:39:38 10° NNW 18:43:47 46° W 18:47:53 10° SSW visible
22 Dec 4.0 17:15:22 10° NNE 17:18:55 24° ENE 17:22:24 10° SE visible
22 Dec 5.0 18:52:46 10° NNW 18:56:26 27° W 19:00:03 10° SSW visible
23 Dec 6.1 05:45:51 10° ESE 05:48:17 15° E 05:50:44 10° NE visible
23 Dec 3.4 17:27:44 10° N 17:31:48 39° ENE 17:35:49 10° SSE visible
23 Dec 5.8 19:06:15 10° NW 19:09:00 17° W 19:11:44 10° SW visible
24 Dec 5.6 05:57:19 10° SE 06:00:51 24° E 06:04:23 10° NE visible
24 Dec 2.9 17:40:19 10° N 17:44:38 67° E 17:48:52 10° SSE visible
25 Dec 4.6 06:09:23 10° SSE 06:13:28 39° E 06:17:35 10° NNE visible
25 Dec 3.2 17:53:04 10° NNW 17:57:22 71° W 18:01:37 10° S visible
26 Dec 3.5 06:21:48 10° S 06:26:09 68° E 06:30:32 10° NNE visible
26 Dec 4.3 18:06:01 10° NNW 18:10:04 40° W 18:14:03 10° SSW visible
